Wetbulb
21.79 23.01 24.13 24.31 25.00 25.88 24.04 27.52 22.87 26.91 30.95 37.64 37.17 40.13 39.96 40.95 40.82 40.08 39.89 39.76 41.39 43.54 48.53 52.26 53.90 54.79 55.20 55.16 55.28 57.24 58.03 57.96 57.46 55.92 56.56 56.10 56.52 55.67 54.73 54.13 53.88 53.70 53.24 52.61
17.99 23.17 23.86 21.24 24.93 28.65 27.53 27.69 29.17 29.78 33.50 34.49 38.34 40.34 38.76 38.15 38.01 37.08 37.28 37.76 39.59 40.72 42.60 48.43 53.07 53.59 54.36 54.45 54.12 53.97 52.79 52.55 53.59 55.24 56.66 55.92 54.05 53.01 52.34 53.13 53.35 53.22 51.55 50.81
14.60 21.52 21.31 15.47 23.46 26.54 28.30 30.03 30.65 26.61 30.63 34.98 34.34 34.52 34.75 34.41 35.38 35.50 36.31 36.64 38.08 38.84 40.61 45.30 48.54 52.66 52.55 52.97 53.04 52.10 51.67 51.24 51.43 51.18 51.02 51.68 52.35 52.03 51.86 52.06 51.34 49.95 49.43 48.87
15.45 18.85 -2.94 21.75 29.33 31.20 28.77 31.04 32.83 32.73 33.46 32.97 34.48 35.46 36.09 36.37 35.24 35.24 35.87 35.99 37.09 38.16 39.13 42.70 46.03 50.68 52.38 51.92 51.16 50.68 50.07 49.86 50.14 49.84 49.43 50.71 50.84 50.29 49.97 49.23 50.42 49.51 49.20 49.82
13.82 14.27 19.08 21.53 25.72 25.53 26.06 25.75 32.58 30.95 33.66 33.15 34.91 35.53 33.89 36.96 36.90 36.18 36.16 36.76 37.35 38.84 38.77 41.20 42.85 43.78 44.10 44.20 47.55 50.59 48.97 48.55 48.57 48.68 48.07 47.98 47.84 48.22 48.78 48.25 48.32 48.41 49.28 47.58
18.14 11.68 3.40 18.45 25.47 29.31 30.99 20.91 28.57 30.95 33.23 32.44 33.64 27.72 30.68 36.97 37.65 37.88 38.21 37.98 37.33 38.31 38.39 38.53 39.32 40.88 40.11 39.97 41.07 42.32 49.24 47.89 47.16 46.50 47.65 46.66 46.55 46.39 46.75 47.69 47.51 48.20 48.79 48.68
16.39 15.20 17.57 23.99 26.96 30.35 18.65 18.92 28.56 29.98 34.54 33.88 32.40 33.83 36.53 37.58 37.74 39.20 39.01 38.32 38.44 37.48 35.91 35.95 36.69 38.16 36.49 36.97 36.99 40.32 46.59 48.65 47.73 46.08 44.74 45.76 45.89 45.85 46.41 46.23 46.21 46.34 46.57 47.04
14.67 12.18 11.38 27.46 26.31 19.84 24.20 28.56 29.33 29.45 31.02 33.11 32.07 33.46 34.79 35.17 35.83 37.22 37.98 38.59 38.61 35.93 34.72 35.47 36.79 36.51 35.38 35.37 37.89 39.33 41.92 46.78 47.11 46.13 45.32 44.01 42.84 44.84 45.05 45.05 44.58 44.25 44.60 44.25
17.01 16.07 25.04 28.44 26.27 28.93 29.85 27.41 28.30 29.16 30.20 30.78 32.78 33.59 34.15 34.42 35.56 36.15 36.84 38.44 39.09 37.79 35.77 34.76 35.41 35.74 35.54 36.17 38.17 38.58 38.17 41.44 44.87 46.21 45.10 42.59 41.13 40.92 41.95 43.97 43.31 43.00 43.30 43.12
18.71 21.67 23.25 26.49 28.25 28.80 29.56 29.21 30.33 30.39 30.13 30.81 30.44 31.51 32.73 34.21 35.33 36.25 37.01 37.40 38.19 38.17 36.98 35.74 35.73 36.12 35.68 36.85 37.03 37.72 36.71 37.19 42.54 43.89 42.83 43.87 41.46 40.22 39.14 39.04 39.94 42.56 42.10 42.43
18.22 21.72 22.89 25.67 27.07 27.61 27.53 30.45 30.60 31.05 31.29 30.56 30.35 31.48 32.80 32.91 32.93 32.61 32.61 33.92 35.32 35.79 35.76 36.29 37.21 36.89 35.92 36.97 37.12 35.50 35.25 35.71 37.16 40.53 40.55 41.18 40.61 39.48 39.11 39.04 39.26 40.27 39.43 41.68
14.21 21.55 20.58 21.28 26.20 28.18 27.33 27.79 29.40 29.43 29.62 31.56 31.62 30.96 33.35 32.71 33.91 32.59 31.45 32.75 32.57 33.65 34.80 35.90 36.80 36.86 37.19 37.56 37.56 35.65 34.25 33.68 34.01 35.39 35.13 37.36 37.82 37.92 37.52 38.29 37.84 38.35 38.28 40.18
20.69 24.42 23.40 24.55 25.89 27.75 26.57 27.49 29.68 29.83 30.29 29.07 31.64 32.72 33.27 32.92 33.98 33.93 32.97 31.96 32.06 32.41 33.90 34.39 35.73 36.29 37.75 38.12 37.63 36.28 33.60 33.87 33.25 33.12 33.68 33.25 34.05 35.25 33.84 36.00 36.63 36.61 36.45 36.31
26.16 24.90 22.86 24.35 22.52 26.64 27.40 28.21 29.88 29.94 30.06 30.10 30.55 32.68 33.41 32.82 33.71 33.77 32.48 32.10 32.77 32.96 33.42 34.02 34.71 35.34 37.37 37.65 36.71 35.64 34.46 31.80 32.10 31.75 31.23 31.40 32.11 33.84 34.05 32.54 32.79 33.84 34.57 33.65
26.45 27.29 25.89 26.51 26.73 26.38 27.54 26.97 26.57 26.08 27.50 28.13 30.01 29.81 30.58 30.97 31.37 32.56 33.81 33.12 33.27 33.13 33.24 33.76 33.85 34.32 36.67 37.42 36.65 34.42 33.43 31.83 31.54 31.74 32.81 32.54 32.87 32.57 32.59 32.06 32.04 32.80 33.16 33.51
23.54 24.34 24.58 23.76 24.16 25.06 25.69 25.56 24.15 24.92 26.16 26.37 26.67 28.01 29.67 31.07 31.20 31.08 31.87 32.25 30.35 30.56 32.80 33.19 32.78 34.10 35.36 35.77 35.16 34.11 33.38 30.81 30.61 32.03 31.53 31.46 30.76 30.98 31.35 30.78 30.88 31.32 31.34 31.84
21.40 21.00 22.21 22.25 23.21 23.87 24.07 24.64 24.90 25.11 26.20 26.12 26.44 27.43 28.38 29.46 29.49 29.93 30.02 30.88 31.80 32.39 32.82 33.15 32.68 34.36 35.28 35.20 33.62 32.81 33.03 33.07 30.18 31.60 31.04 31.38 30.25 29.63 29.24 29.42 29.98 30.15 30.03 30.58
24.65 24.90 25.20 24.60 24.17 23.95 24.68 26.05 26.39 26.40 26.03 26.86 27.09 27.15 27.03 27.37 27.60 28.69 29.78 30.71 31.29 31.82 33.05 33.86 34.62 34.42 34.55 34.96 33.94 32.86 32.20 32.57 32.68 31.57 32.02 31.22 30.59 31.34 30.42 29.94 30.10 29.66 29.88 28.64
26.52 25.62 25.80 25.43 25.58 25.17 24.95 25.08 25.83 26.80 27.43 27.42 26.70 24.79 26.18 26.30 27.67 28.38 29.74 28.81 27.34 28.82 30.93 33.58 32.01 31.74 33.59 32.83 31.14 32.13 31.23 31.00 31.06 30.42 31.08 29.25 29.96 30.43 29.72 29.30 29.34 29.11 28.98 28.37
26.05 26.52 26.38 25.72 26.47 25.68 24.49 25.51 25.83 25.66 26.86 27.17 26.23 24.18 21.81 22.63 23.39 24.19 27.04 27.54 29.39 30.27 32.45 33.00 32.96 32.85 33.26 32.95 29.53 30.82 30.14 29.80 29.08 29.27 29.40 29.20 28.14 27.69 28.18 26.20 28.43 28.23 27.22 27.90
24.98 25.60 26.11 26.28 25.37 26.09 26.28 26.02 25.17 24.75 25.90 26.55 25.61 24.69 24.46 25.64 25.36 23.64 24.74 25.47 28.51 30.70 31.35 30.86 31.72 31.06 31.62 30.61 30.41 29.72 29.37 29.48 29.86 28.33 28.48 27.65 26.83 27.39 27.47 27.29 28.17 27.96 27.10 27.23
25.40 24.58 24.96 24.94 24.69 24.74 25.95 26.65 26.71 26.06 25.93 26.24 25.89 25.99 25.70 25.28 25.43 25.04 26.34 26.83 28.97 28.45 30.30 31.09 31.83 30.15 31.07 28.68 30.95 30.05 29.83 28.95 28.20 27.62 27.51 27.63 27.66 26.97 26.20 26.25 26.77 28.16 29.49 30.03
24.79 24.87 25.14 24.86 24.62 24.87 25.73 26.05 26.62 26.57 25.51 25.32 24.98 25.67 25.64 26.10 26.35 24.79 24.48 28.29 28.41 29.27 29.35 29.63 29.04 28.60 28.78 29.08 28.68 28.87 28.03 27.43 27.49 27.29 27.48 26.52 26.86 26.52 27.13 27.31 28.28 29.00 29.73 30.42
24.11 23.95 23.70 24.58 25.16 24.72 23.49 24.88 25.86 26.72 27.09 26.73 27.25 27.42 26.59 25.26 25.74 27.91 28.82 28.33 26.09 27.41 28.13 28.51 27.34 26.06 26.07 28.52 28.30 28.31 28.40 28.22 28.33 28.19 28.64 25.28 27.80 28.32 28.38 28.37 28.61 29.98 30.22 30.37
23.01 22.92 23.06 22.93 22.64 22.88 23.98 25.14 25.38 25.77 27.06 27.34 26.80 26.74 27.57 28.91 27.41 27.80 27.85 28.21 26.63 25.67 27.88 26.75 25.62 25.80 27.64 27.91 27.94 27.84 27.96 28.30 28.53 28.53 28.57 28.61 28.91 29.01 29.44 29.82 30.18 30.61 30.87 31.23
21.54 21.39 21.97 23.22 23.26 23.55 24.58 25.37 24.22 25.09 25.61 25.24 26.82 27.29 27.25 27.36 28.21 27.80 27.60 26.09 27.69 26.49 27.21 27.97 26.76 27.22 27.81 28.25 28.30 28.47 28.91 29.00 28.69 28.45 28.93 29.49 29.80 29.78 30.06 30.49 30.75 30.98 31.74 32.85
21.22 21.39 21.25 21.28 22.76 23.44 24.02 24.20 23.57 23.61 25.33 26.00 25.65 27.23 28.06 27.95 27.65 27.19 26.72 27.95 27.81 27.65 27.21 27.37 28.27 27.01 28.55 28.07 27.90 28.57 28.55 28.67 28.10 28.96 28.68 29.02 29.47 29.97 30.16 30.49 30.85 31.78 32.72 33.13
MSLP
1018.63 1017.63 1016.34 1014.75 1013.61 1013.09 1013.05 1012.27 1011.30 1009.51 1008.60 1008.00 1007.11 1006.17 1005.62 1005.47 1005.63 1005.65 1005.57 1005.37 1005.18 1005.07 1004.82 1004.57 1004.56 1005.02 1005.04 1005.79 1005.81 1005.83 1006.22 1006.32 1006.72 1007.86 1008.70 1008.24 1010.34 1011.06 1011.91 1011.76 1012.77 1012.93 1013.70 1014.55
1018.01 1017.06 1016.19 1015.11 1013.68 1013.01 1012.51 1012.23 1011.62 1010.93 1010.35 1010.47 1009.02 1008.08 1007.36 1007.13 1007.11 1007.21 1007.15 1006.93 1006.70 1006.46 1006.26 1006.09 1006.17 1006.19 1006.07 1006.61 1006.86 1007.22 1007.35 1007.90 1008.16 1008.16 1008.90 1009.13 1009.37 1010.98 1011.74 1012.12 1013.32 1013.12 1013.39 1013.59
1017.85 1017.30 1016.26 1014.77 1013.74 1012.80 1012.66 1012.50 1012.47 1012.55 1013.12 1012.35 1011.34 1010.41 1009.65 1008.98 1008.56 1008.55 1008.48 1008.33 1008.15 1007.88 1007.75 1007.41 1006.96 1006.94 1007.23 1007.72 1008.06 1008.17 1008.25 1008.73 1009.30 1009.59 1009.80 1010.10 1010.88 1011.81 1012.17 1012.48 1013.80 1013.41 1013.51 1014.25
1018.22 1017.32 1016.80 1014.87 1014.09 1012.56 1012.65 1013.03 1013.33 1013.84 1013.95 1013.78 1013.22 1012.74 1011.26 1010.64 1010.02 1009.78 1009.60 1009.47 1009.55 1009.32 1008.95 1008.70 1008.46 1008.34 1008.56 1008.91 1009.15 1008.96 1009.33 1009.67 1009.97 1010.15 1010.43 1011.19 1011.81 1012.13 1012.35 1012.64 1013.05 1013.02 1013.99 1014.53
1018.54 1017.70 1016.87 1016.22 1015.86 1015.33 1013.95 1014.33 1015.09 1014.94 1014.89 1014.77 1014.51 1013.86 1012.60 1011.94 1011.33 1010.93 1010.61 1010.49 1010.42 1010.35 1010.22 1009.86 1009.59 1009.46 1009.25 1009.41 1009.66 1009.89 1010.13 1010.38 1010.73 1011.01 1011.43 1011.83 1012.00 1012.20 1012.50 1012.79 1013.23 1014.01 1014.44 1014.71
1018.78 1018.28 1017.86 1018.25 1016.62 1015.03 1014.04 1015.43 1016.48 1016.02 1015.27 1015.40 1015.35 1015.20 1014.71 1013.64 1012.41 1011.86 1011.42 1011.22 1011.07 1010.92 1010.85 1010.91 1010.92 1010.39 1010.13 1010.29 1010.55 1011.08 1011.06 1011.06 1011.21 1011.38 1011.74 1011.94 1012.12 1012.50 1012.79 1013.04 1013.51 1014.26 1014.42 1014.82
1019.02 1019.09 1018.59 1018.41 1017.26 1015.28 1016.03 1019.00 1018.35 1017.60 1016.17 1015.77 1015.62 1015.71 1015.68 1014.47 1013.26 1012.80 1012.62 1012.22 1011.92 1011.60 1011.70 1011.69 1011.51 1011.24 1011.51 1011.60 1011.83 1011.64 1011.44 1011.57 1011.71 1011.99 1012.34 1012.65 1013.08 1013.33 1013.45 1013.68 1014.07 1014.30 1014.53 1014.91
1019.98 1019.38 1019.18 1018.70 1018.46 1018.93 1019.85 1019.34 1019.22 1018.66 1018.08 1016.78 1016.34 1016.27 1016.14 1015.48 1014.64 1014.22 1013.48 1013.28 1012.99 1012.69 1012.53 1012.31 1012.09 1012.07 1012.47 1012.64 1012.58 1012.49 1012.20 1012.09 1012.48 1012.84 1013.11 1013.27 1013.47 1013.63 1013.81 1014.10 1014.31 1014.57 1014.81 1015.20
1022.03 1020.92 1020.26 1019.84 1019.75 1019.59 1019.64 1018.99 1018.73 1018.57 1019.08 1018.21 1017.24 1016.76 1016.19 1015.98 1015.49 1015.17 1015.28 1014.27 1013.59 1013.45 1013.27 1013.07 1012.93 1012.84 1012.95 1012.74 1012.58 1012.77 1013.05 1013.29 1013.41 1013.61 1013.76 1013.98 1014.20 1014.22 1014.23 1014.38 1014.70 1015.15 1015.49 1015.74
1021.88 1020.87 1020.44 1020.00 1019.53 1019.30 1019.12 1018.87 1018.54 1018.25 1018.17 1018.56 1017.51 1017.37 1016.71 1016.15 1015.93 1015.11 1014.28 1014.15 1013.76 1013.74 1013.78 1013.79 1013.48 1013.38 1013.39 1013.33 1013.17 1013.06 1013.22 1013.55 1013.69 1014.22 1014.64 1014.71 1014.81 1014.87 1014.89 1014.93 1014.88 1014.92 1015.29 1015.71
1021.84 1021.13 1020.76 1020.18 1019.86 1019.36 1019.02 1018.57 1018.29 1017.81 1017.15 1017.12 1017.33 1016.70 1016.28 1015.86 1015.51 1014.95 1014.33 1013.91 1013.69 1013.68 1013.61 1013.44 1013.55 1013.57 1013.66 1013.71 1013.72 1013.70 1013.73 1013.97 1014.40 1014.80 1015.00 1015.10 1015.15 1015.26 1015.40 1015.46 1015.55 1015.61 1015.81 1016.20
1021.90 1021.46 1021.06 1020.34 1019.70 1019.26 1018.81 1018.32 1017.80 1017.46 1016.94 1016.42 1016.40 1016.51 1016.00 1015.74 1015.26 1014.64 1014.13 1013.93 1013.94 1013.84 1013.65 1013.39 1013.44 1013.58 1013.53 1013.54 1013.84 1013.99 1014.04 1014.07 1014.24 1014.41 1014.68 1014.95 1014.97 1015.02 1015.13 1015.21 1015.34 1015.60 1015.81 1016.06
1021.97 1021.34 1020.70 1020.25 1019.79 1019.27 1018.94 1018.39 1017.91 1017.47 1016.73 1016.32 1016.11 1015.92 1015.61 1015.36 1015.08 1014.63 1014.27 1013.82 1013.69 1013.66 1013.64 1013.67 1013.71 1013.50 1013.45 1013.37 1013.58 1013.98 1014.29 1014.29 1014.41 1014.60 1014.70 1014.58 1014.58 1014.88 1015.06 1014.99 1015.13 1015.37 1015.67 1016.01
1021.57 1021.17 1020.59 1020.21 1019.96 1019.51 1019.10 1018.55 1018.07 1017.64 1017.28 1017.05 1016.55 1015.95 1015.39 1015.06 1014.66 1014.73 1014.58 1014.08 1013.31 1013.22 1013.34 1013.37 1013.44 1013.48 1013.13 1013.05 1013.35 1013.89 1014.27 1014.47 1014.64 1014.94 1015.09 1015.34 1015.50 1015.60 1015.84 1016.09 1016.18 1016.10 1015.92 1016.11
1021.75 1021.30 1020.95 1020.57 1019.76 1019.24 1018.87 1018.44 1018.07 1018.04 1017.74 1017.23 1016.77 1016.45 1015.94 1015.45 1014.81 1014.25 1014.07 1013.99 1013.78 1013.30 1013.16 1013.14 1013.10 1012.87 1012.60 1012.51 1012.92 1013.50 1013.92 1014.37 1014.88 1015.19 1015.28 1015.53 1015.74 1015.95 1016.22 1016.46 1016.70 1016.71 1016.79 1016.61
1021.83 1021.30 1020.88 1020.54 1020.01 1019.49 1019.11 1018.79 1018.60 1018.23 1017.81 1017.29 1016.82 1016.49 1016.05 1015.63 1015.23 1014.83 1014.31 1013.79 1013.80 1013.46 1012.96 1012.84 1012.82 1012.48 1012.12 1012.06 1012.40 1013.01 1013.48 1013.93 1014.48 1014.84 1015.13 1015.36 1015.53 1015.89 1016.26 1016.45 1016.65 1016.75 1016.92 1016.91
1021.79 1021.38 1020.99 1020.60 1020.22 1019.71 1019.16 1018.59 1018.15 1017.65 1017.29 1017.01 1016.65 1016.31 1016.04 1015.67 1015.18 1014.75 1014.30 1013.86 1013.47 1013.05 1012.70 1012.43 1012.33 1012.20 1012.09 1011.93 1012.06 1012.49 1012.95 1013.39 1013.68 1014.10 1014.45 1014.69 1014.95 1015.37 1015.70 1016.11 1016.41 1016.55 1016.56 1016.32
1021.52 1021.10 1020.72 1020.30 1019.73 1019.12 1018.54 1018.03 1017.50 1016.92 1016.45 1016.10 1015.84 1015.70 1015.52 1015.30 1015.06 1014.63 1014.17 1013.70 1013.35 1012.91 1012.38 1011.90 1011.69 1011.68 1011.75 1011.61 1011.46 1011.85 1012.21 1012.52 1012.86 1013.19 1013.52 1013.95 1014.26 1014.54 1014.87 1015.19 1015.48 1015.76 1015.73 1015.67
1021.01 1020.43 1019.75 1019.25 1018.78 1018.26 1017.75 1017.20 1016.54 1015.92 1015.39 1015.01 1014.76 1014.64 1014.47 1014.40 1014.35 1014.05 1013.71 1013.47 1013.01 1012.70 1011.99 1011.59 1011.34 1011.26 1011.23 1011.19 1011.32 1011.42 1011.67 1011.88 1012.23 1012.54 1012.85 1013.14 1013.60 1013.91 1014.17 1014.41 1014.61 1014.85 1015.03 1015.18
1019.93 1019.50 1019.08 1018.47 1017.91 1017.50 1016.83 1016.38 1015.71 1015.03 1014.47 1014.01 1013.62 1013.49 1013.40 1013.23 1013.19 1013.06 1012.85 1012.68 1012.21 1011.75 1011.41 1011.13 1010.84 1010.92 1010.70 1010.70 1010.94 1011.25 1011.42 1011.55 1011.89 1012.13 1012.46 1012.76 1013.05 1013.37 1013.57 1013.70 1013.81 1013.99 1014.12 1014.19
1019.35 1019.11 1018.40 1017.78 1017.05 1016.37 1015.74 1015.20 1014.65 1013.95 1013.31 1012.98 1012.68 1012.30 1012.11 1011.91 1011.85 1011.92 1011.91 1011.66 1010.96 1010.75 1010.56 1010.46 1010.45 1010.36 1010.35 1010.49 1010.44 1010.76 1011.38 1011.54 1011.74 1011.94 1012.18 1012.41 1012.61 1012.85 1013.04 1013.14 1013.21 1013.20 1013.18 1013.19
1018.13 1017.94 1017.35 1016.75 1016.03 1015.14 1014.46 1013.85 1013.37 1012.76 1012.17 1011.63 1011.28 1011.09 1010.88 1010.60 1010.51 1010.48 1010.30 1010.21 1009.70 1009.53 1009.67 1009.61 1009.51 1009.50 1009.57 1009.63 1009.83 1010.01 1010.41 1010.63 1010.98 1011.29 1011.36 1011.54 1011.75 1011.90 1011.97 1012.00 1012.07 1012.08 1012.09 1012.06
1017.36 1017.08 1016.52 1015.78 1015.05 1014.26 1013.54 1012.79 1012.07 1011.48 1010.89 1010.36 1009.91 1009.57 1009.40 1009.17 1009.06 1009.13 1008.94 1008.61 1008.78 1008.58 1008.60 1008.61 1008.58 1008.67 1008.82 1009.05 1009.27 1009.48 1009.65 1009.83 1009.96 1010.05 1010.14 1010.37 1010.62 1010.79 1010.87 1010.84 1010.83 1010.85 1010.79 1010.70
1016.74 1016.32 1015.74 1015.00 1014.17 1013.28 1012.40 1011.68 1011.11 1010.43 1009.82 1009.08 1008.52 1008.13 1007.99 1007.85 1007.64 1007.48 1007.38 1007.18 1007.37 1007.52 1007.43 1007.53 1007.72 1007.87 1007.95 1008.20 1008.42 1008.52 1008.61 1008.73 1008.88 1009.04 1009.13 1009.28 1009.44 1009.51 1009.57 1009.60 1009.62 1009.50 1009.40 1009.28
1016.31 1015.63 1015.06 1014.25 1013.44 1012.51 1011.73 1010.90 1010.16 1009.46 1008.77 1008.16 1007.53 1007.12 1006.81 1006.50 1006.47 1006.08 1006.15 1006.18 1006.27 1006.36 1006.50 1006.47 1006.64 1006.71 1006.89 1007.24 1007.34 1007.42 1007.56 1007.67 1007.70 1007.88 1007.99 1008.08 1008.12 1008.21 1008.16 1008.13 1008.07 1008.04 1008.02 1007.93
1015.79 1015.15 1014.51 1013.74 1012.86 1011.96 1011.07 1010.28 1009.45 1008.72 1008.09 1007.42 1006.79 1006.37 1006.02 1005.73 1005.50 1005.33 1005.23 1005.22 1005.24 1005.28 1005.36 1005.39 1005.61 1005.73 1005.75 1005.80 1005.94 1006.05 1006.19 1006.31 1006.37 1006.54 1006.59 1006.62 1006.64 1006.65 1006.60 1006.56 1006.49 1006.45 1006.37 1006.22
1015.56 1014.89 1013.97 1013.02 1012.05 1011.23 1010.43 1009.56 1008.67 1007.73 1007.17 1006.60 1006.00 1005.64 1005.35 1005.09 1004.86 1004.69 1004.56 1004.47 1004.40 1004.34 1004.28 1004.29 1004.30 1004.39 1004.50 1004.81 1004.82 1004.84 1004.95 1004.98 1004.98 1005.05 1005.22 1005.19 1005.13 1005.01 1004.97 1004.97 1004.87 1004.71 1004.64 1004.57
Wind_Speed
7 17 14 16 14 13 9 8 5 10 11 14 16 4 11 13 14 15 16 17 16 15 9 8 9 8 9 8 6 3 8 3 7 12 8 7 5 8 5 7 5 9 7 7
10 11 12 15 16 8 5 8 8 10 7 14 15 11 13 13 14 15 15 16 17 17 15 9 8 8 10 8 9 7 10 8 6 5 6 12 11 8 6 10 12 14 14 14
10 7 11 7 10 8 2 3 5 6 6 8 14 14 12 12 14 13 13 14 16 16 13 11 8 9 10 9 8 9 8 9 7 7 8 8 10 10 9 9 8 7 8 9
8 7 3 4 20 3 6 2 4 5 7 8 10 13 9 10 13 12 12 12 13 13 13 12 12 9 10 8 7 9 9 7 7 6 7 5 6 6 6 7 8 7 7 9
3 5 8 11 16 14 3 4 14 9 3 4 10 12 12 10 8 9 8 6 7 9 9 10 13 12 14 13 9 6 7 6 6 6 6 5 5 6 4 6 6 7 8 9
5 3 3 9 18 20 8 3 25 21 5 2 1 2 5 17 9 13 9 6 6 7 8 9 7 10 12 12 13 8 3 4 4 5 6 5 5 5 3 5 5 5 6 7
5 4 5 15 17 16 3 10 17 21 3 1 1 4 7 14 10 10 12 13 7 7 7 6 6 9 9 9 10 7 5 5 5 5 6 6 5 3 3 4 4 4 5 5
3 3 1 15 8 7 3 5 10 17 18 6 6 9 9 12 11 13 13 13 13 9 7 7 6 7 7 7 4 7 8 6 6 5 5 4 5 4 4 4 4 3 3 3
6 4 9 9 4 4 5 4 3 9 12 15 14 6 5 3 9 3 1 10 8 9 8 7 7 6 7 5 6 6 8 7 5 5 5 5 5 4 4 4 3 3 3 2
9 6 11 5 6 2 5 4 3 5 7 15 6 10 9 7 7 8 4 7 6 5 0 6 6 7 7 7 6 6 7 7 6 5 5 4 3 3 3 2 3 3 2 0
7 8 6 4 5 7 9 6 7 7 1 2 15 10 4 9 10 6 4 3 3 3 3 3 5 5 6 7 7 6 6 5 5 4 4 4 4 3 3 2 3 1 1 2
5 7 7 7 7 10 11 11 8 8 8 5 5 10 8 8 11 9 4 1 2 4 4 1 2 3 2 4 5 5 5 4 4 2 1 1 2 2 4 2 5 5 4 3
4 6 4 8 7 6 6 7 9 11 10 7 7 6 6 6 10 10 10 5 2 3 3 4 4 5 4 1 2 3 1 2 3 3 3 3 3 2 2 5 7 6 3 2
3 5 5 7 3 5 5 6 6 6 6 8 9 7 6 6 6 9 12 10 6 4 5 5 5 7 7 6 5 4 3 4 2 1 0 1 1 2 1 1 1 2 3 3
6 2 3 6 7 6 4 6 8 6 6 7 6 6 6 10 6 7 11 9 8 6 5 6 7 7 7 6 6 7 5 4 4 4 4 4 3 2 2 2 2 2 2 3
8 7 8 7 8 8 8 8 6 7 7 7 6 7 7 5 5 7 9 8 6 8 7 5 6 8 7 6 7 5 6 8 7 5 4 4 3 4 3 3 4 4 4 4
8 10 10 10 9 10 11 9 8 8 7 7 8 8 9 9 6 7 7 7 9 10 8 6 6 7 7 7 7 5 5 5 7 5 5 5 5 5 5 5 5 5 5 5
6 8 11 12 14 14 14 15 14 14 12 12 9 9 8 8 9 11 10 10 8 9 9 7 6 5 6 7 8 6 6 6 5 6 5 5 5 5 5 5 6 5 5 4
11 15 16 17 16 14 15 19 19 18 17 14 12 10 11 10 10 11 12 10 8 10 11 8 7 6 6 7 6 4 5 5 5 4 5 6 5 5 5 5 5 5 5 4
15 16 17 21 21 21 20 18 19 19 18 17 15 11 10 11 11 10 11 13 13 9 10 10 8 7 6 6 5 3 4 5 5 5 4 4 4 5 5 6 5 5 6 6
16 17 19 17 19 20 18 17 17 18 18 18 17 16 16 16 13 12 10 9 13 12 12 11 8 5 5 5 5 5 5 4 4 4 4 5 5 5 5 6 6 6 5 6
16 16 17 19 18 19 17 15 14 16 17 17 16 15 15 15 12 10 13 13 9 11 8 7 7 9 7 8 5 5 5 6 6 5 5 5 5 6 7 6 7 7 7 8
15 17 17 17 16 17 17 16 15 15 15 16 15 14 13 11 10 10 10 10 10 13 9 7 9 11 11 7 5 6 7 7 7 6 6 6 7 7 7 7 8 8 9 9
16 17 18 18 17 15 16 14 14 14 14 14 14 13 11 9 9 9 11 12 11 13 9 9 9 12 12 7 7 7 8 8 8 7 8 8 8 8 8 8 9 9 10 11
18 17 17 16 16 12 15 15 13 13 12 12 12 10 10 8 9 9 8 9 12 12 11 12 13 14 10 9 9 9 9 9 9 9 9 9 9 9 10 10 11 11 11 11
17 12 13 16 13 12 11 10 10 9 9 9 8 7 7 6 6 6 6 7 8 9 9 8 8 10 10 10 10 11 10 10 10 9 10 10 11 11 11 12 12 11 12 12
13 16 12 13 11 11 11 12 12 12 10 9 10 8 8 7 6 6 6 6 6 7 6 7 7 9 10 9 9 10 9 9 11 10 10 10 11 12 12 12 12 12 11 11
Wind_Direction
300 305 308 327 327 310 303 296 276 331 343 20 353 54 84 78 65 58 56 46 35 32 34 38 69 77 80 73 51 82 192 190 176 149 141 106 192 175 139 129 183 132 156 145
297 288 316 314 306 345 288 254 274 327 44 352 18 49 74 77 75 63 53 47 41 33 29 30 78 74 74 64 69 70 91 98 92 142 182 169 159 160 154 159 176 175 176 161
291 304 307 311 6 333 89 356 360 20 358 344 31 41 50 67 68 66 59 50 42 34 34 29 40 67 66 64 69 73 75 74 84 101 108 126 146 157 162 162 175 153 136 145
277 309 25 270 357 31 104 122 152 292 23 17 9 340 53 53 72 67 67 60 48 38 28 34 55 70 98 93 87 78 77 79 78 84 96 120 138 148 149 153 169 148 153 161
250 256 270 19 351 338 16 42 22 328 93 16 18 329 34 27 47 69 54 56 67 58 38 37 47 48 59 55 51 77 94 94 99 104 106 118 122 131 136 138 131 155 164 153
292 246 213 349 330 329 271 85 356 335 139 85 323 132 353 342 19 30 43 46 52 46 51 52 33 52 49 46 44 30 88 74 88 101 108 93 93 97 95 117 131 144 155 161
266 252 117 2 5 323 11 354 345 343 345 335 245 39 23 347 18 33 24 30 20 54 55 45 45 61 52 49 43 7 47 103 72 61 77 96 103 94 100 104 119 135 148 151
351 318 245 7 24 34 270 325 352 352 0 33 51 12 20 358 16 12 359 1 12 21 24 28 38 63 52 55 62 58 40 58 89 85 78 74 84 79 84 105 110 113 116 140
359 350 21 60 116 187 246 293 45 21 348 346 355 322 289 272 333 327 113 313 338 355 6 20 31 38 48 356 38 61 72 61 85 89 86 70 80 88 88 86 97 130 146 165
292 321 336 46 7 338 326 299 314 91 43 321 331 348 326 285 262 251 230 195 205 278 316 8 26 35 28 19 19 52 60 72 72 106 119 114 86 63 73 74 99 98 73 44
293 301 327 23 316 306 308 293 298 301 277 45 315 319 296 314 319 258 230 1 359 237 217 144 83 46 43 30 23 31 41 51 81 115 117 140 146 159 147 192 159 177 187 161
296 268 244 258 263 279 286 292 285 293 300 267 223 299 312 315 311 310 242 84 15 0 330 326 131 129 73 46 48 22 16 20 13 26 39 74 66 65 72 88 192 178 158 157
286 306 275 287 281 281 285 322 339 327 301 287 267 252 273 287 303 319 305 269 231 258 280 292 262 203 213 224 85 71 62 360 47 36 19 358 358 25 347 354 31 54 41 320
311 316 342 359 326 350 337 330 334 337 359 0 335 293 252 260 281 288 309 286 271 247 246 256 253 238 222 206 188 183 196 213 169 179 81 30 307 317 9 229 255 306 337 294
319 305 209 281 310 312 304 323 336 323 312 328 324 316 332 320 277 238 263 297 295 278 277 270 269 258 241 211 192 195 181 194 190 184 166 155 129 117 141 136 208 246 332 334
314 329 324 323 311 307 306 306 281 277 284 285 297 299 291 282 304 316 308 297 296 278 263 261 260 259 251 224 208 199 194 190 183 189 191 188 176 164 170 198 197 206 214 233
336 333 327 317 310 298 287 273 259 261 254 258 272 285 302 289 284 289 282 287 294 276 252 245 257 270 257 229 210 198 190 193 189 191 198 202 189 186 191 190 211 223 229 227
286 294 302 296 298 296 296 291 287 276 268 260 247 255 259 262 269 275 273 275 280 289 281 255 240 253 263 242 205 201 193 195 192 192 196 196 201 199 196 198 206 207 233 244
298 289 284 285 283 279 285 283 279 278 277 264 250 241 237 244 250 256 267 269 260 267 266 268 260 255 250 254 242 218 202 204 208 201 198 199 207 213 206 200 207 210 214 226
286 294 302 297 294 293 290 284 283 280 274 270 270 260 248 242 235 238 251 253 252 243 252 257 250 252 240 224 199 209 195 188 200 207 205 206 199 208 215 218 219 219 220 224
308 301 290 293 294 291 282 278 276 274 274 267 264 260 258 255 245 233 245 245 252 248 240 241 238 227 220 224 215 193 200 215 208 206 204 209 206 215 218 220 228 227 229 230
311 308 297 296 292 287 286 285 272 274 272 267 264 259 258 251 241 231 234 236 245 242 231 224 226 232 235 222 216 208 222 224 220 215 208 206 212 221 224 221 226 232 237 239
314 309 306 304 305 303 297 288 280 272 270 268 262 257 246 245 246 239 241 228 227 235 221 218 218 221 227 229 220 220 217 212 217 214 220 214 218 219 223 226 234 239 246 247
315 314 308 304 297 294 293 294 293 287 277 272 268 259 250 249 245 236 238 244 222 222 217 219 221 223 225 227 228 227 225 226 226 226 228 220 220 226 231 232 235 240 244 250
316 314 309 308 305 302 303 296 291 288 285 276 273 265 260 249 233 247 222 225 223 222 228 226 222 225 229 222 218 219 220 221 221 219 222 223 227 228 232 235 239 242 243 243
316 313 308 304 299 298 294 296 292 289 287 283 278 269 263 258 254 238 228 219 222 225 230 231 226 235 237 226 223 226 225 225 228 225 226 228 232 233 237 236 238 239 241 242
315 310 307 304 299 300 295 291 289 284 277 271 274 273 268 263 255 246 242 243 237 231 227 225 219 218 228 228 222 222 223 225 227 227 226 230 234 237 239 242 243 244 244 245